This is the latest recevied weather packets stored in our database for station/object WR9A-13. If no packets are shown the sender has not sent any weather packets the latest 1 day(s).
| Time | Temp. | Humidity | Pressure | Rain* | Wind** | Luminosity | Snow |
|---|---|---|---|---|---|---|---|
| 1777995620 | 12.22° C | 66% | 1009.7 hPa | 0 mm | 0.45 m/s, 51° | - | - |
| 1777995336 | 12.22° C | 65% | 1009.7 hPa | 0 mm | 0.45 m/s, 51° | - | - |
| 1777995024 | 12.22° C | 64% | 1009.6 hPa | 0 mm | 0.45 m/s, 29° | - | - |
| 1777994722 | 12.22° C | 65% | 1009.6 hPa | 0 mm | 0.89 m/s, 82° | - | - |
| 1777994430 | 12.22° C | 65% | 1009.7 hPa | 0 mm | 1.79 m/s, 340° | - | - |
| 1777994127 | 12.22° C | 64% | 1009.6 hPa | 0 mm | 0.89 m/s, 13° | - | - |
| 1777993815 | 12.22° C | 62% | 1009.7 hPa | 0 mm | 2.68 m/s, 357° | - | - |
| 1777993532 | 12.22° C | 62% | 1010 hPa | 0 mm | 2.68 m/s, 10° | - | - |
| 1777993215 | 12.22° C | 62% | 1010 hPa | 0 mm | 1.34 m/s, 20° | - | - |
| 1777992932 | 12.22° C | 61% | 1009.8 hPa | 0 mm | 1.79 m/s, 7° | - | - |
| 1777992619 | 12.22° C | 60% | 1009.6 hPa | 0 mm | 3.13 m/s, 3° | - | - |
| 1777992331 | 12.22° C | 61% | 1009.6 hPa | 0 mm | 3.13 m/s, 8° | - | - |
| 1777992030 | 12.78° C | 69% | 1009.6 hPa | 0 mm | 2.68 m/s, 349° | - | - |
| 1777991716 | 12.78° C | 70% | 1009.5 hPa | 0 mm | 2.24 m/s, 359° | - | - |
| 1777991433 | 12.78° C | 73% | 1009.4 hPa | 0 mm | 2.68 m/s, 13° | - | - |
| 1777991121 | 12.78° C | 75% | 1009.3 hPa | 0 mm | 3.58 m/s, 358° | - | - |
| 1777990837 | 12.78° C | 76% | 1009.2 hPa | 0 mm | 2.24 m/s, 339° | - | - |
| 1777990524 | 12.78° C | 76% | 1009.2 hPa | 0 mm | 1.79 m/s, 18° | - | - |
| 1777990237 | 12.78° C | 75% | 1009.1 hPa | 0 mm | 2.68 m/s, 351° | - | - |
| 1777989923 | 12.78° C | 74% | 1009.1 hPa | 0 mm | 2.68 m/s, 329° | - | - |
| 1777989633 | 13.33° C | 75% | 1009 hPa | 0 mm | 3.13 m/s, 322° | - | - |
| 1777989320 | 13.33° C | 79% | 1008.9 hPa | 0 mm | 2.68 m/s, 291° | - | - |
| 1777989016 | 13.33° C | 79% | 1008.8 hPa | 0 mm | 2.68 m/s, 353° | - | - |
| 1777988724 | 13.33° C | 82% | 1008.8 hPa | 0 mm | 2.68 m/s, 321° | - | - |
| 1777988421 | 13.33° C | 83% | 1008.8 hPa | 0 mm | 1.79 m/s, 311° | - | - |
* Rain latest hour (hover to see other rain measurements)
** Current wind speed in m/s (hover to see current wind gust speed)